Regional Weather Roundup
Issued by NWS

Home | Current Version | Previous Version | Text Only | Print | Product List | Glossary On
Versions: 1 2 3 4 5 6 7 8 9 10 11 12 13 14 15 16 17 18 19 20 21 22 23 24 25 26 27
000
ASUS44 KBMX 250010
RWRAL

ALABAMA REGIONAL WEATHER ROUNDUP
NATIONAL WEATHER SERVICE BIRMINGHAM AL
700 PM CDT FRI OCT 24 2014

NOTE: "FAIR" INDICATES FEW OR NO CLOUDS BELOW 12,000 FEET
WITH NO SIGNIFICANT WEATHER AND/OR OBSTRUCTIONS TO VISIBILITY.

THE REMARK "TC" DENOTES TEMPERATURE IN DEGREES CELSIUS.

ALZ001>011-014-016>018-020-250100-
NORTH ALABAMA

CITY           SKY/WX    TMP DP  RH WIND       PRES   REMARKS
MUSCLE SHOALS  CLEAR     62  46  55 NW6       30.09R
6HR MIN TEMP:  62; 6HR MAX TEMP:  75;

HUNTSVILLE     PTCLDY    63  38  39 N3        30.06R
6HR MIN TEMP:  63; 6HR MAX TEMP:  75;

DECATUR        MOCLDY    56  46  69 CALM      30.07R
6HR MIN TEMP:  56; 6HR MAX TEMP:  73;

HALEYVILLE     FAIR      55  47  74 CALM      30.11R
6HR MIN TEMP:  55; 6HR MAX TEMP:  71;

GADSDEN        CLEAR     55  43  62 CALM      30.04S
6HR MIN TEMP:  55; 6HR MAX TEMP:  73;

$$

ALZ012-013-022-023-030>036-040>044-250100-
WEST CENTRAL ALABAMA

CITY           SKY/WX    TMP DP  RH WIND       PRES   REMARKS
TUSCALOOSA     CLEAR     64  47  53 NW3       30.06R
6HR MIN TEMP:  63; 6HR MAX TEMP:  77;

$$

ALZ015-024>027-033>036-040>044-250100-
CENTRAL ALABAMA

CITY           SKY/WX    TMP DP  RH WIND       PRES   REMARKS
BIRMINGHAM     PTCLDY    62  40  44 N5        30.07R
6HR MIN TEMP:  62; 6HR MAX TEMP:  75;

MONTGOMERY     CLEAR     64  44  48 NW3       30.03R
6HR MIN TEMP:  64; 6HR MAX TEMP:  79;

SHELBY CO ARPT CLEAR     59  49  69 CALM      30.05R
6HR MIN TEMP:  59; 6HR MAX TEMP:  75;

MAXWELL AFB    CLEAR     61  49  65 NW2       30.02R
6HR MIN TEMP:  61; 6HR MAX TEMP:  77;

GREENVILLE     NOT AVBL
$$

ALZ019-021-028-029-037-038-045>048-250100-
EAST CENTRAL ALABAMA

CITY           SKY/WX    TMP DP  RH WIND       PRES   REMARKS
ANNISTON       CLEAR     67  36  31 NW6       30.04R
6HR MIN TEMP:  67; 6HR MAX TEMP:  75;

ALEXANDER CITY CLEAR     59  50  73 CALM      30.03S
6HR MIN TEMP:  59; 6HR MAX TEMP:  76;

AUBURN         CLEAR     61  45  55 CALM      30.05R
6HR MIN TEMP:  61; 6HR MAX TEMP:  72;

$$

ALZ051>064-250100-
SOUTHWEST ALABAMA

CITY           SKY/WX    TMP DP  RH WIND       PRES   REMARKS
MOBILE         CLEAR     58  49  72 CALM      30.05R
6HR MIN TEMP:  58; 6HR MAX TEMP:  77;

BROOKLEY FIELD CLEAR     59  51  75 NW3       30.05R
6HR MIN TEMP:  59; 6HR MAX TEMP:  78;

EVERGREEN      CLEAR     61  49  64 CALM      30.04R
6HR MIN TEMP:  60; 6HR MAX TEMP:  79;

$$

ALZ049-050-065>069-250100-
SOUTHEAST ALABAMA

CITY           SKY/WX    TMP DP  RH WIND       PRES   REMARKS
DOTHAN         CLEAR     61  47  59 CALM      30.04R HAZE
6HR MIN TEMP:  57; 6HR MAX TEMP:  77;

OZARK          CLEAR     65  48  55 NW3       30.01R
6HR MIN TEMP:  65; 6HR MAX TEMP:  76;

TROY           CLEAR     60  48  64 CALM      30.03R
6HR MIN TEMP:  60; 6HR MAX TEMP:  77;

EUFAULA        FAIR      55  51  86 CALM      30.01R
6HR MIN TEMP:  55; 6HR MAX TEMP:  76;

$$



USA.gov is the U.S. government's official web portal to all federal, state and local government web resources and services.